User: anonymous   Login
Location: Unspecified
(0.0000°N, 0.0000°E)
Time: 09:15:35
(UTC+00:00)
Language:

DNEPR OBJECT U - Orbit

View from above orbital plane
View from above orbital plane
View from above satellite
View from above satellite

Ground track
Ground track

The orbit data is extracted from the following two-line orbital elements,

1 39434U 13066U   18109.73862247  .00001964  00000-0  14652-3 0  9998
2 39434  97.6227 186.3486 0032835 200.3368 159.6529 15.03616515240878
Epoch (UTC): 19 April 2018 17:43:36
Eccentricity: 0.0032835
inclination: 97.6227°
perigee height: 533 km
apogee height: 578 km
right ascension of ascending node: 186.3486°
argument of perigee: 200.3368°
revolutions per day: 15.03616515
mean anomaly at epoch: 159.6529°
orbit number at epoch: 24087

The dashed part of the orbit path shows where the satellite is in the earth's shadow,  

DLR